Satellite: HRBE Catalog number: 37855 Epoch time: 14299.31519077 Element set: 964 Inclination: 101.7073 deg RA of node: 033.0929 deg Eccentricity: 0.0210392 Arg of perigee: 035.0185 deg Mean anomaly: 326.4649 deg Mean motion: 14.91992610 rev/day Decay rate: 1.2829e-04 rev/day^2 Epoch rev: 16221 Checksum: 306
Satellite: RS-39 Catalog number: 38051 Epoch time: 14288.65876392 Element set: 41 Inclination: 051.5964 deg RA of node: 324.1908 deg Eccentricity: 0.0006422 Arg of perigee: 269.6897 deg Mean anomaly: 186.8903 deg Mean motion: 16.43533377 rev/day Decay rate: 7.0201582e-01 rev/day^2 Epoch rev: 15308 Checksum: 345
Satellite: E-STAR Catalog number: 38079 Epoch time: 14299.24277459 Element set: 40 Inclination: 069.4428 deg RA of node: 000.4410 deg Eccentricity: 0.0256294 Arg of perigee: 163.7389 deg Mean anomaly: 197.2270 deg Mean motion: 15.39472200 rev/day Decay rate: 2.77978e-03 rev/day^2 Epoch rev: 14337 Checksum: 329
Satellite: GOLIAT Catalog number: 38085 Epoch time: 14299.37535474 Element set: 488 Inclination: 069.4438 deg RA of node: 010.8674 deg Eccentricity: 0.0290736 Arg of perigee: 168.5952 deg Mean anomaly: 192.2007 deg Mean motion: 15.29956425 rev/day Decay rate: 2.57316e-03 rev/day^2 Epoch rev: 14310 Checksum: 338
Satellite: HORYU-2 Catalog number: 38340 Epoch time: 14299.42122494 Element set: 5 Inclination: 098.2820 deg RA of node: 258.9851 deg Eccentricity: 0.0013702 Arg of perigee: 116.4692 deg Mean anomaly: 243.7923 deg Mean motion: 14.73007894 rev/day Decay rate: 4.743e-05 rev/day^2 Epoch rev: 13110 Checksum: 293
Satellite: RS-40 Catalog number: 38735 Epoch time: 14299.12695930 Element set: 722 Inclination: 082.4786 deg RA of node: 205.8981 deg Eccentricity: 0.0016806 Arg of perigee: 333.5861 deg Mean anomaly: 026.4360 deg Mean motion: 12.42562449 rev/day Decay rate: 2.1e-07 rev/day^2 Epoch rev: 10183 Checksum: 306
Satellite: PROITERES Catalog number: 38756 Epoch time: 14299.45140942 Element set: 348 Inclination: 098.2261 deg RA of node: 029.8907 deg Eccentricity: 0.0011556 Arg of perigee: 328.7599 deg Mean anomaly: 031.2921 deg Mean motion: 14.75201465 rev/day Decay rate: 1.801e-05 rev/day^2 Epoch rev: 11452 Checksum: 306
Satellite: BEESAT-3 Catalog number: 39134 Epoch time: 14298.47706918 Element set: 749 Inclination: 064.8755 deg RA of node: 085.7371 deg Eccentricity: 0.0036075 Arg of perigee: 285.7520 deg Mean anomaly: 073.9623 deg Mean motion: 15.06956631 rev/day Decay rate: 1.5897e-04 rev/day^2 Epoch rev: 8327 Checksum: 355
Satellite: BEESAT-2 Catalog number: 39136 Epoch time: 14298.86697214 Element set: 733 Inclination: 064.8754 deg RA of node: 085.4269 deg Eccentricity: 0.0036314 Arg of perigee: 285.8761 deg Mean anomaly: 073.8358 deg Mean motion: 15.06127599 rev/day Decay rate: 1.4708e-04 rev/day^2 Epoch rev: 8331 Checksum: 348
Satellite: LO-75 Catalog number: 39382 Epoch time: 14295.69194059 Element set: 487 Inclination: 040.4713 deg RA of node: 030.2705 deg Eccentricity: 0.0002289 Arg of perigee: 341.7175 deg Mean anomaly: 018.4586 deg Mean motion: 16.19795749 rev/day Decay rate: 7.301741e-02 rev/day^2 Epoch rev: 47082 Checksum: 345
Satellite: ZACUBE-1 Catalog number: 39417 Epoch time: 14299.14638555 Element set: 449 Inclination: 097.7617 deg RA of node: 005.2071 deg Eccentricity: 0.0062021 Arg of perigee: 176.9530 deg Mean anomaly: 183.2072 deg Mean motion: 14.78549912 rev/day Decay rate: 3.552e-05 rev/day^2 Epoch rev: 5004 Checksum: 304
Satellite: TRITON-1 Catalog number: 39427 Epoch time: 14298.72982246 Element set: 301 Inclination: 097.7494 deg RA of node: 357.9604 deg Eccentricity: 0.0117516 Arg of perigee: 194.3035 deg Mean anomaly: 165.4833 deg Mean motion: 14.65737130 rev/day Decay rate: 3.930e-05 rev/day^2 Epoch rev: 4951 Checksum: 324
Satellite: DELFIN3XT Catalog number: 39428 Epoch time: 14298.42163401 Element set: 304 Inclination: 097.7490 deg RA of node: 356.5098 deg Eccentricity: 0.0127392 Arg of perigee: 198.4886 deg Mean anomaly: 161.1667 deg Mean motion: 14.63858875 rev/day Decay rate: 5.958e-05 rev/day^2 Epoch rev: 4938 Checksum: 363
Satellite: GOMX-1 Catalog number: 39430 Epoch time: 14299.20503293 Element set: 931 Inclination: 097.7430 deg RA of node: 353.9011 deg Eccentricity: 0.0155498 Arg of perigee: 205.6907 deg Mean anomaly: 153.6510 deg Mean motion: 14.57167927 rev/day Decay rate: 3.697e-05 rev/day^2 Epoch rev: 4929 Checksum: 323
Satellite: MO-76 Catalog number: 39436 Epoch time: 14299.12522057 Element set: 385 Inclination: 097.7680 deg RA of node: 010.9030 deg Eccentricity: 0.0024936 Arg of perigee: 174.6593 deg Mean anomaly: 185.4897 deg Mean motion: 14.93666568 rev/day Decay rate: 3.2875e-04 rev/day^2 Epoch rev: 5039 Checksum: 358
Satellite: LO-74 Catalog number: 39440 Epoch time: 14299.14940777 Element set: 296 Inclination: 097.7575 deg RA of node: 002.4951 deg Eccentricity: 0.0083836 Arg of perigee: 182.4770 deg Mean anomaly: 177.6035 deg Mean motion: 14.73460295 rev/day Decay rate: 3.739e-05 rev/day^2 Epoch rev: 4986 Checksum: 358
Satellite: PUCPSAT-1 Catalog number: 39442 Epoch time: 14299.10543861 Element set: 295 Inclination: 097.7676 deg RA of node: 009.4084 deg Eccentricity: 0.0034587 Arg of perigee: 173.1396 deg Mean anomaly: 187.0301 deg Mean motion: 14.86758585 rev/day Decay rate: 5.576e-05 rev/day^2 Epoch rev: 4907 Checksum: 345
Satellite: SHINAISAT Catalog number: 39572 Epoch time: 14299.42154480 Element set: 360 Inclination: 065.0002 deg RA of node: 302.2218 deg Eccentricity: 0.0017723 Arg of perigee: 288.1094 deg Mean anomaly: 071.8140 deg Mean motion: 15.92335212 rev/day Decay rate: 2.96715e-03 rev/day^2 Epoch rev: 3779 Checksum: 287
Satellite: TEIKYOSAT Catalog number: 39576 Epoch time: 14297.85867254 Element set: 437 Inclination: 064.9818 deg RA of node: 300.5833 deg Eccentricity: 0.0008491 Arg of perigee: 317.3597 deg Mean anomaly: 044.3862 deg Mean motion: 16.45008906 rev/day Decay rate: 9.345816e-02 rev/day^2 Epoch rev: 3769 Checksum: 359
Satellite: CO-77 Catalog number: 39577 Epoch time: 14244.78324653 Element set: 379 Inclination: 064.9920 deg RA of node: 123.7668 deg Eccentricity: 0.0014904 Arg of perigee: 269.7208 deg Mean anomaly: 091.1897 deg Mean motion: 16.43552757 rev/day Decay rate: 1.0543803e-01 rev/day^2 Epoch rev: 2938 Checksum: 363
Satellite: SPROUT Catalog number: 39770 Epoch time: 14298.51436888 Element set: 172 Inclination: 097.8733 deg RA of node: 033.6940 deg Eccentricity: 0.0008655 Arg of perigee: 243.9825 deg Mean anomaly: 116.0500 deg Mean motion: 14.82920808 rev/day Decay rate: 2.962e-05 rev/day^2 Epoch rev: 2284 Checksum: 320
Satellite: POPSAT-HIP1 Catalog number: 40028 Epoch time: 14299.45644390 Element set: 395 Inclination: 097.9709 deg RA of node: 194.3342 deg Eccentricity: 0.0013226 Arg of perigee: 223.1258 deg Mean anomaly: 136.8919 deg Mean motion: 14.85542946 rev/day Decay rate: 3.981e-05 rev/day^2 Epoch rev: 1906 Checksum: 327
Satellite: EO-80 Catalog number: 40032 Epoch time: 14299.27427751 Element set: 383 Inclination: 097.9697 deg RA of node: 194.0443 deg Eccentricity: 0.0011281 Arg of perigee: 219.9726 deg Mean anomaly: 140.0685 deg Mean motion: 14.85301595 rev/day Decay rate: 3.654e-05 rev/day^2 Epoch rev: 1904 Checksum: 318
Satellite: VELOX-1 Catalog number: 40057 Epoch time: 14299.46691021 Element set: 382 Inclination: 098.2406 deg RA of node: 008.6764 deg Eccentricity: 0.0010397 Arg of perigee: 265.0151 deg Mean anomaly: 094.9892 deg Mean motion: 14.74397277 rev/day Decay rate: 3.686e-05 rev/day^2 Epoch rev: 1742 Checksum: 322
Satellite: DAURIA DX 1 Catalog number: 40071 Epoch time: 14299.42072981 Element set: 354 Inclination: 098.3888 deg RA of node: 355.9335 deg Eccentricity: 0.0007274 Arg of perigee: 270.2090 deg Mean anomaly: 089.8293 deg Mean motion: 14.79706930 rev/day Decay rate: 1.745e-05 rev/day^2 Epoch rev: 1621 Checksum: 320
Satellite: UKUBE-1 Catalog number: 40074 Epoch time: 14299.41933868 Element set: 356 Inclination: 098.3902 deg RA of node: 356.1100 deg Eccentricity: 0.0003466 Arg of perigee: 282.9821 deg Mean anomaly: 077.1016 deg Mean motion: 14.80775229 rev/day Decay rate: 3.643e-05 rev/day^2 Epoch rev: 1622 Checksum: 298
Satellite: CHASQUI-1 Catalog number: 40117 Epoch time: 14299.11531178 Element set: 226 Inclination: 051.6455 deg RA of node: 168.6759 deg Eccentricity: 0.0006548 Arg of perigee: 207.8706 deg Mean anomaly: 284.6252 deg Mean motion: 15.60041921 rev/day Decay rate: 1.23836e-03 rev/day^2 Epoch rev: 1063 Checksum: 295
/EX